Regional Weather Roundup
Issued by NWS

Home | Current Version | Previous Version | Graphics & Text | Print | Product List | Glossary On
Versions: 1 2 3 4 5 6 7 8 9 10 11 12 13 14 15 16 17 18 19 20 21 22 23 24 25 26 27 28 29 30 31 32 33 34 35 36 37 38 39 40 41 42 43 44 45 46 47 48 49 50
000
ASUS43 KFSD 190610
RWRSD

WEATHER ROUNDUP FOR SOUTH DAKOTA
NATIONAL WEATHER SERVICE SIOUX FALLS SD
100 AM CDT TUE SEP 19 2017

NOTE: "FAIR" INDICATES FEW OR NO CLOUDS BELOW 12,000 FEET WITH NO
SIGNIFICANT WEATHER AND/OR OBSTRUCTIONS TO VISIBILITY.


SDZ001>005-009-010-012>017-190700-
NORTHWEST AND NORTH CENTRAL SOUTH DAKOTA

CITY           SKY/WX    TMP DP  RH WIND       PRES   REMARKS
BUFFALO          N/A     65  47  52 SE14      29.55S
MOBRIDGE       CLOUDY    58  50  75 E12       29.69F
$$

SDZ012>016-024>037-041>051-057-063-072>074-190700-
SOUTHWEST AND SOUTH CENTRAL SOUTH DAKOTA

CITY           SKY/WX    TMP DP  RH WIND       PRES   REMARKS
RAPID CTY ARPT NOT AVBL
PIERRE         CLEAR     63  58  83 SE12      29.69F
CUSTER         CLEAR     56  33  42 S5        29.79F
ELLSWORTH AFB  CLOUDY    60  39  45 S9        29.65F
PHILIP         PTCLDY    64  47  53 S14       29.66F
PINE RIDGE     CLEAR     70  46  42 S22G30    29.72F
SPEARFISH      FAIR      70  36  28 S12G21    29.65F
WINNER         FAIR      68  61  78 S14       29.74F
$$

SDZ004>011-016>023-039-040-190700-
NORTHEAST SOUTH DAKOTA

CITY           SKY/WX    TMP DP  RH WIND       PRES   REMARKS
ABERDEEN       CLEAR     61  60  97 SE10      29.77F
WATERTOWN      CLOUDY    63  63 100 S12       29.83F
BROOKINGS      CLOUDY    64  63  96 S12       29.85F
SISSETON         N/A     62  61  96 SE14      29.82F
$$

SDZ017-020-022-023-036>040-048>070-190700-
SOUTHEAST SOUTH DAKOTA

CITY           SKY/WX    TMP DP  RH WIND       PRES   REMARKS
SIOUX FALLS    CLOUDY    68  66  93 S10       29.85F
HURON          CLEAR     64  62  93 SE14G21   29.77F
CHAMBERLAIN    CLEAR     62  62 100 SE8       29.75F
MITCHELL       CLEAR     65  64  97 S12       29.80F
YANKTON        CLOUDY    66  65  96 SE12      29.84F
$$

ABBREVIATIONS USED IN REMARKS
   TC - TEMPERATURE IN CELSIUS
  WCI - WIND CHILL INDEX
   HX - HEAT INDEX
  VSB - VISIBILITY





USA.gov is the U.S. government's official web portal to all federal, state and local government web resources and services.